| time (UTC) | temp F | wind direction | speed knots | gust knots | rain 1hr in | rain 24hr in | rain mn in | humidity % | barometer mb |
| 20260504021601 | 44 | 45 | 0.9 | 1.7 | 0.00 | 0.00 | 0.00 | 80 | 1017.1 |
| 20260504020546 | 44 | 0.0 | 0.0 | 0.00 | 0.00 | 0.00 | 78 | 1016.9 | |
| 20260504015532 | 45 | 0.0 | 0.9 | 0.00 | 0.00 | 0.00 | 78 | 1016.8 | |
| 20260504014521 | 45 | 45 | 0.0 | 1.7 | 0.00 | 0.00 | 0.00 | 78 | 1016.9 |
| 20260504013609 | 45 | 45 | 0.0 | 1.7 | 0.00 | 0.00 | 0.00 | 77 | 1016.9 |
| 20260504012555 | 45 | 45 | 0.0 | 0.9 | 0.00 | 0.00 | 0.00 | 74 | 1017.0 |
| 20260504011544 | 45 | 45 | 0.0 | 1.7 | 0.00 | 0.00 | 0.00 | 76 | 1017.1 |
| 20260504010528 | 45 | 0.0 | 0.0 | 0.00 | 0.00 | 0.00 | 75 | 1016.9 | |
| 20260504005614 | 46 | 0.0 | 0.0 | 0.00 | 0.00 | 0.00 | 70 | 1016.9 | |
| 20260504004603 | 46 | 45 | 0.0 | 1.7 | 0.00 | 0.00 | 0.00 | 70 | 1017.0 |
| 20260504003552 | 47 | 45 | 0.0 | 1.7 | 0.00 | 0.00 | 0.00 | 69 | 1016.9 |
| 20260504002538 | 47 | 0.0 | 0.0 | 0.00 | 0.00 | 0.00 | 67 | 1016.9 | |
| 20260504001526 | 48 | 45 | 0.9 | 2.6 | 0.00 | 0.00 | 0.00 | 66 | 1017.1 |
| 20260504000612 | 49 | 180 | 0.9 | 1.7 | 0.00 | 0.00 | 0.00 | 65 | 1016.9 |
| 20260503235558 | 50 | 180 | 0.0 | 1.7 | 0.00 | 0.00 | 0.00 | 64 | 1017.1 |
| 20260503234545 | 50 | 0.0 | 0.0 | 0.00 | 0.00 | 0.00 | 63 | 1016.9 | |
| 20260503233534 | 51 | 180 | 0.0 | 1.7 | 0.00 | 0.00 | 0.00 | 62 | 1016.9 |
| 20260503232519 | 52 | 180 | 0.9 | 1.7 | 0.00 | 0.00 | 0.00 | 61 | 1016.9 |
| 20260503231608 | 53 | 180 | 0.9 | 1.7 | 0.00 | 0.00 | 0.00 | 61 | 1017.2 |
| 20260503230554 | 53 | 180 | 0.0 | 1.7 | 0.00 | 0.00 | 0.00 | 61 | 1017.0 |
| 20260503225540 | 53 | 180 | 0.0 | 1.7 | 0.00 | 0.00 | 0.00 | 60 | 1017.1 |
| 20260503224528 | 53 | 195 | 1.7 | 2.6 | 0.00 | 0.00 | 0.00 | 60 | 1017.2 |
| 20260503223614 | 54 | 206 | 1.7 | 2.6 | 0.00 | 0.00 | 0.00 | 60 | 1017.1 |
| 20260503222600 | 54 | 225 | 1.7 | 2.6 | 0.00 | 0.00 | 0.00 | 60 | 1017.2 |
| 20260503221548 | 53 | 159 | 1.7 | 2.6 | 0.00 | 0.00 | 0.00 | 61 | 1017.1 |
| 20260503220534 | 53 | 135 | 0.9 | 1.7 | 0.00 | 0.00 | 0.00 | 60 | 1017.1 |
| 20260503215520 | 53 | 90 | 0.0 | 1.7 | 0.00 | 0.00 | 0.00 | 60 | 1017.1 |
| 20260503214609 | 52 | 90 | 0.9 | 1.7 | 0.00 | 0.00 | 0.00 | 60 | 1017.2 |
| 20260503213558 | 53 | 90 | 1.7 | 2.6 | 0.00 | 0.00 | 0.00 | 59 | 1017.0 |
| 20260503212544 | 53 | 90 | 1.7 | 1.7 | 0.00 | 0.00 | 0.00 | 58 | 1017.1 |
| 20260503211532 | 54 | 90 | 1.7 | 2.6 | 0.00 | 0.00 | 0.00 | 57 | 1017.1 |
| 20260503210619 | 54 | 90 | 0.9 | 1.7 | 0.00 | 0.00 | 0.00 | 56 | 1017.1 |
| 20260503205604 | 55 | 90 | 0.9 | 1.7 | 0.00 | 0.00 | 0.00 | 53 | 1017.1 |
| 20260503204553 | 55 | 90 | 0.9 | 2.6 | 0.00 | 0.00 | 0.00 | 52 | 1017.1 |
| 20260503203538 | 54 | 90 | 0.9 | 1.7 | 0.00 | 0.00 | 0.00 | 54 | 1017.0 |
| 20260503202524 | 54 | 166 | 1.7 | 3.5 | 0.00 | 0.00 | 0.00 | 54 | 1016.9 |
| 20260503201613 | 54 | 0.0 | 0.9 | 0.00 | 0.00 | 0.00 | 52 | 1016.9 | |
| 20260503200558 | 55 | 0.0 | 0.0 | 0.00 | 0.00 | 0.00 | 50 | 1017.0 | |
| 20260503195544 | 55 | 0.0 | 0.0 | 0.00 | 0.00 | 0.00 | 50 | 1016.9 | |
| 20260503194532 | 55 | 225 | 0.9 | 1.7 | 0.00 | 0.00 | 0.00 | 50 | 1017.0 |
| 20260503193617 | 55 | 0.0 | 0.0 | 0.00 | 0.00 | 0.00 | 51 | 1017.0 | |
| 20260503192602 | 55 | 0.0 | 0.0 | 0.00 | 0.00 | 0.00 | 50 | 1016.9 | |
| 20260503191548 | 56 | 0.0 | 0.0 | 0.00 | 0.00 | 0.00 | 50 | 1017.0 | |
| 20260503190532 | 56 | 293 | 0.9 | 1.7 | 0.00 | 0.00 | 0.00 | 48 | 1016.9 |
| 20260503185619 | 57 | 0.0 | 0.0 | 0.00 | 0.00 | 0.00 | 44 | 1016.8 | |
| 20260503184607 | 58 | 0 | 0.9 | 1.7 | 0.00 | 0.00 | 0.00 | 44 | 1016.8 |
| 20260503183553 | 59 | 0.0 | 0.0 | 0.00 | 0.00 | 0.00 | 43 | 1016.7 | |
| 20260503182539 | 59 | 0.0 | 0.0 | 0.00 | 0.00 | 0.00 | 42 | 1016.7 | |
| 20260503181527 | 60 | 0.0 | 0.0 | 0.00 | 0.00 | 0.00 | 41 | 1016.8 | |
| 20260503180613 | 62 | 0 | 0.9 | 1.7 | 0.00 | 0.00 | 0.00 | 41 | 1016.5 |
| 20260503175558 | 63 | 0 | 0.0 | 1.7 | 0.00 | 0.00 | 0.00 | 40 | 1016.7 |
| 20260503174546 | 64 | 0 | 0.0 | 0.9 | 0.00 | 0.00 | 0.00 | 35 | 1016.6 |
| 20260503173532 | 65 | 0 | 0.0 | 0.9 | 0.00 | 0.00 | 0.00 | 33 | 1016.4 |
| 20260503172618 | 67 | 0 | 0.0 | 1.7 | 0.00 | 0.00 | 0.00 | 32 | 1016.3 |
| 20260503171606 | 69 | 0 | 0.0 | 1.7 | 0.00 | 0.00 | 0.00 | 30 | 1016.4 |
| 20260503170551 | 71 | 0 | 0.9 | 1.7 | 0.00 | 0.00 | 0.00 | 28 | 1016.3 |
| 20260503150614 | 76 | 317 | 7.0 | 9.6 | 0.00 | 0.00 | 0.00 | 20 | 1016.6 |
| 20260503130532 | 76 | 320 | 4.3 | 7.0 | 0.00 | 0.00 | 0.00 | 21 | 1017.4 |
| 20260503110555 | 73 | 204 | 6.1 | 8.7 | 0.00 | 0.00 | 0.00 | 28 | 1018.7 |
| 20260503081608 | 64 | 198 | 7.0 | 9.6 | 0.00 | 0.00 | 0.00 | 39 | 1020.0 |
| 20260503080554 | 62 | 173 | 8.7 | 13.0 | 0.00 | 0.00 | 0.00 | 41 | 1020.2 |
| 20260503072559 | 60 | 236 | 7.0 | 10.4 | 0.00 | 0.00 | 0.00 | 41 | 1020.3 |
| 20260503071548 | 60 | 177 | 6.1 | 9.6 | 0.00 | 0.00 | 0.00 | 42 | 1020.3 |
| 20260503070533 | 59 | 187 | 7.0 | 11.3 | 0.00 | 0.00 | 0.00 | 42 | 1020.3 |
| 20260503054551 | 57 | 217 | 8.7 | 12.2 | 0.00 | 0.00 | 0.00 | 42 | 1020.4 |
| 20260503053539 | 57 | 230 | 6.1 | 9.6 | 0.00 | 0.00 | 0.00 | 43 | 1020.6 |
| 20260503052526 | 56 | 205 | 5.2 | 8.7 | 0.00 | 0.00 | 0.00 | 44 | 1020.6 |
| 20260503051614 | 55 | 207 | 7.8 | 10.4 | 0.00 | 0.00 | 0.00 | 44 | 1020.8 |
| 20260503050559 | 55 | 215 | 6.1 | 8.7 | 0.00 | 0.00 | 0.00 | 46 | 1020.7 |
| 20260503045544 | 54 | 186 | 7.0 | 10.4 | 0.00 | 0.00 | 0.00 | 49 | 1020.7 |
| 20260503044532 | 53 | 202 | 7.8 | 9.6 | 0.00 | 0.00 | 0.00 | 50 | 1020.8 |
| 20260503043618 | 53 | 193 | 6.1 | 8.7 | 0.00 | 0.00 | 0.00 | 50 | 1020.9 |
| 20260503042603 | 52 | 186 | 7.8 | 10.4 | 0.00 | 0.00 | 0.00 | 50 | 1020.9 |
| 20260503041551 | 52 | 200 | 5.2 | 9.6 | 0.00 | 0.00 | 0.00 | 51 | 1021.0 |
| 20260503040537 | 51 | 205 | 5.2 | 8.7 | 0.00 | 0.00 | 0.00 | 51 | 1021.0 |
| 20260503035523 | 50 | 193 | 7.0 | 9.6 | 0.00 | 0.00 | 0.00 | 52 | 1021.0 |
| 20260503034612 | 49 | 195 | 5.2 | 7.8 | 0.00 | 0.00 | 0.00 | 53 | 1021.1 |
| 20260503033557 | 49 | 189 | 4.3 | 7.0 | 0.00 | 0.00 | 0.00 | 54 | 1021.2 |
| 20260503032543 | 48 | 225 | 2.6 | 5.2 | 0.00 | 0.00 | 0.00 | 56 | 1021.0 |
| 20260503031531 | 47 | 191 | 5.2 | 7.8 | 0.00 | 0.00 | 0.00 | 59 | 1021.2 |
| 20260503030618 | 46 | 187 | 4.3 | 7.8 | 0.00 | 0.00 | 0.00 | 60 | 1021.2 |
| 20260503025603 | 46 | 192 | 4.3 | 7.0 | 0.00 | 0.00 | 0.00 | 60 | 1021.3 |
| 20260503024552 | 45 | 180 | 4.3 | 7.0 | 0.00 | 0.00 | 0.00 | 64 | 1021.4 |
| 20260503023537 | 45 | 212 | 4.3 | 5.2 | 0.00 | 0.00 | 0.00 | 63 | 1021.4 |
| 20260503022523 | 45 | 205 | 3.5 | 5.2 | 0.00 | 0.00 | 0.00 | 61 | 1021.6 |